Year,Month,Day,Hour,Minute,Value (Times are PST for temperature in C)
2015,09,28,00,00,8.00
2015,09,28,00,01,7.90
2015,09,28,00,02,7.90
2015,09,28,00,03,7.90
2015,09,28,00,04,7.90
2015,09,28,00,05,7.90
2015,09,28,00,06,8.00
2015,09,28,00,07,8.10
2015,09,28,00,08,8.10
2015,09,28,00,09,8.10
2015,09,28,00,10,8.00
2015,09,28,00,11,8.10
2015,09,28,00,12,8.10
2015,09,28,00,13,8.10
2015,09,28,00,14,8.10
2015,09,28,00,15,8.10
2015,09,28,00,16,8.10
2015,09,28,00,17,8.10
2015,09,28,00,18,8.10
2015,09,28,00,19,8.20
2015,09,28,00,20,8.20
2015,09,28,00,21,8.20
2015,09,28,00,22,8.20
2015,09,28,00,23,8.20
2015,09,28,00,24,8.20
2015,09,28,00,25,8.20
2015,09,28,00,26,8.20
2015,09,28,00,27,8.20
2015,09,28,00,28,8.20
2015,09,28,00,29,8.20
2015,09,28,00,30,8.10
2015,09,28,00,31,8.20
2015,09,28,00,32,8.20
2015,09,28,00,33,8.30
2015,09,28,00,34,8.30
2015,09,28,00,35,8.30
2015,09,28,00,36,8.30
2015,09,28,00,37,8.30
2015,09,28,00,38,8.30
2015,09,28,00,39,8.30
2015,09,28,00,40,8.30
2015,09,28,00,41,8.30
2015,09,28,00,42,8.30
2015,09,28,00,43,8.30
2015,09,28,00,44,8.30
2015,09,28,00,45,8.20
2015,09,28,00,46,8.20
2015,09,28,00,47,8.20
2015,09,28,00,48,8.20
2015,09,28,00,49,8.20
2015,09,28,00,50,8.20
2015,09,28,00,51,8.20
2015,09,28,00,52,8.20
2015,09,28,00,53,8.20
2015,09,28,00,54,8.20
2015,09,28,00,55,8.30
2015,09,28,00,56,8.30
2015,09,28,00,57,8.30
2015,09,28,00,58,8.30
2015,09,28,00,59,8.30
2015,09,28,01,00,8.30
2015,09,28,01,01,8.30
2015,09,28,01,02,8.30
2015,09,28,01,03,8.30
2015,09,28,01,04,8.30
2015,09,28,01,05,8.30
2015,09,28,01,06,8.20
2015,09,28,01,07,8.20
2015,09,28,01,08,8.20
2015,09,28,01,09,8.30
2015,09,28,01,10,8.30
2015,09,28,01,11,8.30
2015,09,28,01,12,8.30
2015,09,28,01,13,8.30
2015,09,28,01,14,8.30
2015,09,28,01,15,8.30
2015,09,28,01,16,8.30
2015,09,28,01,17,8.30
2015,09,28,01,18,8.30
2015,09,28,01,19,8.30
2015,09,28,01,20,8.30
2015,09,28,01,21,8.30
2015,09,28,01,22,8.30
2015,09,28,01,23,8.30
2015,09,28,01,24,8.20
2015,09,28,01,25,8.20
2015,09,28,01,26,8.20
2015,09,28,01,27,8.20
2015,09,28,01,28,8.20
2015,09,28,01,29,8.20
2015,09,28,01,30,8.20
2015,09,28,01,31,8.20
2015,09,28,01,32,8.20
2015,09,28,01,33,8.20
2015,09,28,01,34,8.20
2015,09,28,01,35,8.20
2015,09,28,01,36,8.20
2015,09,28,01,37,8.20
2015,09,28,01,38,8.20
2015,09,28,01,39,8.20
2015,09,28,01,40,8.20
2015,09,28,01,41,8.10
2015,09,28,01,42,8.10
2015,09,28,01,43,8.10
2015,09,28,01,44,8.10
2015,09,28,01,45,8.10
2015,09,28,01,46,8.10
2015,09,28,01,47,8.10
2015,09,28,01,48,8.10
2015,09,28,01,49,8.10
2015,09,28,01,50,8.10
2015,09,28,01,51,8.10
2015,09,28,01,52,8.10
2015,09,28,01,53,8.10
2015,09,28,01,54,8.10
2015,09,28,01,55,8.10
2015,09,28,01,56,8.10
2015,09,28,01,57,8.10
2015,09,28,01,58,8.10
2015,09,28,01,59,8.10
2015,09,28,02,00,8.10
2015,09,28,02,01,8.10
2015,09,28,02,02,8.10
2015,09,28,02,03,8.10
2015,09,28,02,04,8.10
2015,09,28,02,05,8.10
2015,09,28,02,06,8.10
2015,09,28,02,07,8.00
2015,09,28,02,08,8.00
2015,09,28,02,09,8.00
2015,09,28,02,10,8.00
2015,09,28,02,11,7.90
2015,09,28,02,12,8.00
2015,09,28,02,13,8.00
2015,09,28,02,14,7.90
2015,09,28,02,15,7.90
2015,09,28,02,16,7.90
2015,09,28,02,17,7.90
2015,09,28,02,18,7.90
2015,09,28,02,19,7.90
2015,09,28,02,20,7.90
2015,09,28,02,21,7.80
2015,09,28,02,22,7.80
2015,09,28,02,23,7.90
2015,09,28,02,24,7.90
2015,09,28,02,25,7.90
2015,09,28,02,26,7.90
2015,09,28,02,27,7.90
2015,09,28,02,28,7.90
2015,09,28,02,29,7.90
2015,09,28,02,30,7.90
2015,09,28,02,31,7.90
2015,09,28,02,32,7.90
2015,09,28,02,33,7.90
2015,09,28,02,34,7.90
2015,09,28,02,35,8.00
2015,09,28,02,36,8.00
2015,09,28,02,37,8.00
2015,09,28,02,38,8.00
2015,09,28,02,39,8.00
2015,09,28,02,40,7.90
2015,09,28,02,41,7.90
2015,09,28,02,42,7.90
2015,09,28,02,43,7.90
2015,09,28,02,44,7.90
2015,09,28,02,45,7.90
2015,09,28,02,46,7.90
2015,09,28,02,47,7.90
2015,09,28,02,48,7.90
2015,09,28,02,49,7.90
2015,09,28,02,50,7.90
2015,09,28,02,51,7.80
2015,09,28,02,52,7.80
2015,09,28,02,53,7.70
2015,09,28,02,54,7.70
2015,09,28,02,55,7.70
2015,09,28,02,56,7.70
2015,09,28,02,57,7.60
2015,09,28,02,58,7.60
2015,09,28,02,59,7.50
2015,09,28,03,00,7.50
2015,09,28,03,01,7.50
2015,09,28,03,02,7.60
2015,09,28,03,03,7.60
2015,09,28,03,04,7.70
2015,09,28,03,05,7.70
2015,09,28,03,06,7.70
2015,09,28,03,07,7.70
2015,09,28,03,08,7.70
2015,09,28,03,09,7.70
2015,09,28,03,10,7.70
2015,09,28,03,11,7.70
2015,09,28,03,12,7.70
2015,09,28,03,13,7.70
2015,09,28,03,14,7.70
2015,09,28,03,15,7.70
2015,09,28,03,16,7.70
2015,09,28,03,17,7.70
2015,09,28,03,18,7.70
2015,09,28,03,19,7.70
2015,09,28,03,20,7.70
2015,09,28,03,21,7.80
2015,09,28,03,22,7.80
2015,09,28,03,23,7.80
2015,09,28,03,24,7.80
2015,09,28,03,25,7.70
2015,09,28,03,26,7.70
2015,09,28,03,27,7.70
2015,09,28,03,28,7.60
2015,09,28,03,29,7.60
2015,09,28,03,30,7.60
2015,09,28,03,31,7.60
2015,09,28,03,32,7.50
2015,09,28,03,33,7.50
2015,09,28,03,34,7.50
2015,09,28,03,35,7.50
2015,09,28,03,36,7.50
2015,09,28,03,37,7.50
2015,09,28,03,38,7.50
2015,09,28,03,39,7.50
2015,09,28,03,40,7.50
2015,09,28,03,41,7.50
2015,09,28,03,42,7.50
2015,09,28,03,43,7.40
2015,09,28,03,44,7.40
2015,09,28,03,45,7.40
2015,09,28,03,46,7.40
2015,09,28,03,47,7.40
2015,09,28,03,48,7.40
2015,09,28,03,49,7.40
2015,09,28,03,50,7.40
2015,09,28,03,51,7.40
2015,09,28,03,52,7.40
2015,09,28,03,53,7.40
2015,09,28,03,54,7.40
2015,09,28,03,55,7.40
2015,09,28,03,56,7.40
2015,09,28,03,57,7.50
2015,09,28,03,58,7.50
2015,09,28,03,59,7.50
2015,09,28,04,00,7.40
2015,09,28,04,01,7.40
2015,09,28,04,02,7.40
2015,09,28,04,03,7.50
2015,09,28,04,04,7.50
2015,09,28,04,05,7.60
2015,09,28,04,06,7.60
2015,09,28,04,07,7.60
2015,09,28,04,08,7.60
2015,09,28,04,09,7.60
2015,09,28,04,10,7.60
2015,09,28,04,11,7.60
2015,09,28,04,12,7.60
2015,09,28,04,13,7.50
2015,09,28,04,14,7.50
2015,09,28,04,15,7.50
2015,09,28,04,16,7.40
2015,09,28,04,17,7.40
2015,09,28,04,18,7.40
2015,09,28,04,19,7.40
2015,09,28,04,20,7.40
2015,09,28,04,21,7.40
2015,09,28,04,22,7.40
2015,09,28,04,23,7.40
2015,09,28,04,24,7.40
2015,09,28,04,25,7.40
2015,09,28,04,26,7.40
2015,09,28,04,27,7.50
2015,09,28,04,28,7.60
2015,09,28,04,29,7.60
2015,09,28,04,30,7.70
2015,09,28,04,31,7.70
2015,09,28,04,32,7.70
2015,09,28,04,33,7.70
2015,09,28,04,34,7.70
2015,09,28,04,35,7.70
2015,09,28,04,36,7.70
2015,09,28,04,37,7.70
2015,09,28,04,38,7.70
2015,09,28,04,39,7.60
2015,09,28,04,40,7.60
2015,09,28,04,41,7.50
2015,09,28,04,42,7.40
2015,09,28,04,43,7.40
2015,09,28,04,44,7.30
2015,09,28,04,45,7.30
2015,09,28,04,46,7.20
2015,09,28,04,47,7.20
2015,09,28,04,48,7.20
2015,09,28,04,49,7.20
2015,09,28,04,50,7.20
2015,09,28,04,51,7.20
2015,09,28,04,52,7.20
2015,09,28,04,53,7.20
2015,09,28,04,54,7.30
2015,09,28,04,55,7.30
2015,09,28,04,56,7.40
2015,09,28,04,57,7.40
2015,09,28,04,58,7.50
2015,09,28,04,59,7.50
2015,09,28,05,00,7.60
2015,09,28,05,01,7.60
2015,09,28,05,02,7.60
2015,09,28,05,03,7.70
2015,09,28,05,04,7.70
2015,09,28,05,05,7.80
2015,09,28,05,06,7.90
2015,09,28,05,07,8.00
2015,09,28,05,08,8.00
2015,09,28,05,09,8.10
2015,09,28,05,10,8.20
2015,09,28,05,11,8.20
2015,09,28,05,12,8.30
2015,09,28,05,13,8.30
2015,09,28,05,14,8.30
2015,09,28,05,15,8.30
2015,09,28,05,16,8.40
2015,09,28,05,17,8.40
2015,09,28,05,18,8.40
2015,09,28,05,19,8.30
2015,09,28,05,20,8.30
2015,09,28,05,21,8.30
2015,09,28,05,22,8.30
2015,09,28,05,23,8.30
2015,09,28,05,24,8.30
2015,09,28,05,25,8.40
2015,09,28,05,26,8.40
2015,09,28,05,27,8.40
2015,09,28,05,28,8.30
2015,09,28,05,29,8.30
2015,09,28,05,30,8.30
2015,09,28,05,31,8.30
2015,09,28,05,32,8.40
2015,09,28,05,33,8.40
2015,09,28,05,34,8.40
2015,09,28,05,35,8.50
2015,09,28,05,36,8.50
2015,09,28,05,37,8.50
2015,09,28,05,38,8.50
2015,09,28,05,39,8.50
2015,09,28,05,40,8.60
2015,09,28,05,41,8.60
2015,09,28,05,42,8.60
2015,09,28,05,43,8.60
2015,09,28,05,44,8.60
2015,09,28,05,45,8.60
2015,09,28,05,46,8.60
2015,09,28,05,47,8.60
2015,09,28,05,48,8.60
2015,09,28,05,49,8.60
2015,09,28,05,50,8.50
2015,09,28,05,51,8.50
2015,09,28,05,52,8.50
2015,09,28,05,53,8.40
2015,09,28,05,54,8.40
2015,09,28,05,55,8.50
2015,09,28,05,56,8.50
2015,09,28,05,57,8.60
2015,09,28,05,58,8.50
2015,09,28,05,59,8.50
2015,09,28,06,00,8.50
2015,09,28,06,01,8.50
2015,09,28,06,02,8.50
2015,09,28,06,03,8.60
2015,09,28,06,04,8.70
2015,09,28,06,05,8.70
2015,09,28,06,06,8.60
2015,09,28,06,07,8.60
2015,09,28,06,08,8.70
2015,09,28,06,09,8.70
2015,09,28,06,10,8.80
2015,09,28,06,11,8.70
2015,09,28,06,12,8.70
2015,09,28,06,13,8.80
2015,09,28,06,14,8.80
2015,09,28,06,15,8.80
2015,09,28,06,16,8.80
2015,09,28,06,17,8.80
2015,09,28,06,18,8.80
2015,09,28,06,19,8.80
2015,09,28,06,20,8.80
2015,09,28,06,21,8.80
2015,09,28,06,22,8.80
2015,09,28,06,23,8.80
2015,09,28,06,24,8.80
2015,09,28,06,25,8.80
2015,09,28,06,26,8.80
2015,09,28,06,27,8.80
2015,09,28,06,28,8.80
2015,09,28,06,29,8.90
2015,09,28,06,30,8.90
2015,09,28,06,31,9.00
2015,09,28,06,32,9.00
2015,09,28,06,33,9.10
2015,09,28,06,34,9.10
2015,09,28,06,35,9.10
2015,09,28,06,36,9.20
2015,09,28,06,37,9.20
2015,09,28,06,38,9.20
2015,09,28,06,39,9.20
2015,09,28,06,40,9.20
2015,09,28,06,41,9.20
2015,09,28,06,42,9.20
2015,09,28,06,43,9.30
2015,09,28,06,44,9.30
2015,09,28,06,45,9.30
2015,09,28,06,46,9.30
2015,09,28,06,47,9.30
2015,09,28,06,48,9.30
2015,09,28,06,49,9.30
2015,09,28,06,50,9.40
2015,09,28,06,51,9.40
2015,09,28,06,52,9.30
2015,09,28,06,53,9.30
2015,09,28,06,54,9.40
2015,09,28,06,55,9.40
2015,09,28,06,56,9.40
2015,09,28,06,57,9.30
2015,09,28,06,58,9.40
2015,09,28,06,59,9.40
2015,09,28,07,00,9.40
2015,09,28,07,01,9.40
2015,09,28,07,02,9.40
2015,09,28,07,03,9.30
2015,09,28,07,04,9.30
2015,09,28,07,05,9.30
2015,09,28,07,06,9.30
2015,09,28,07,07,9.20
2015,09,28,07,08,9.20
2015,09,28,07,09,9.20
2015,09,28,07,10,9.10
2015,09,28,07,11,9.00
2015,09,28,07,12,9.00
2015,09,28,07,13,8.90
2015,09,28,07,14,8.80
2015,09,28,07,15,8.70
2015,09,28,07,16,8.70
2015,09,28,07,17,8.60
2015,09,28,07,18,8.60
2015,09,28,07,19,8.50
2015,09,28,07,20,8.50
2015,09,28,07,21,8.50
2015,09,28,07,22,8.50
2015,09,28,07,23,8.40
2015,09,28,07,24,8.40
2015,09,28,07,25,8.40
2015,09,28,07,26,8.40
2015,09,28,07,27,8.40
2015,09,28,07,28,8.40
2015,09,28,07,29,8.50
2015,09,28,07,30,8.50
2015,09,28,07,31,8.50
2015,09,28,07,32,8.50
2015,09,28,07,33,8.50
2015,09,28,07,34,8.50
2015,09,28,07,35,8.50
2015,09,28,07,36,8.50
2015,09,28,07,37,8.60
2015,09,28,07,38,8.60
2015,09,28,07,39,8.60
2015,09,28,07,40,8.60
2015,09,28,07,41,8.60
2015,09,28,07,42,8.70
2015,09,28,07,43,8.70
2015,09,28,07,44,8.70
2015,09,28,07,45,8.70
2015,09,28,07,46,8.70
2015,09,28,07,47,8.80
2015,09,28,07,48,8.70
2015,09,28,07,49,8.70
2015,09,28,07,50,8.80
2015,09,28,07,51,8.80
2015,09,28,07,52,8.80
2015,09,28,07,53,8.90
2015,09,28,07,54,8.90
2015,09,28,07,55,9.00
2015,09,28,07,56,9.00
2015,09,28,07,57,9.10
2015,09,28,07,58,9.10
2015,09,28,07,59,9.20
2015,09,28,08,00,9.20
2015,09,28,08,01,9.20
2015,09,28,08,02,9.30
2015,09,28,08,03,9.30
2015,09,28,08,04,9.30
2015,09,28,08,05,9.30
2015,09,28,08,06,9.40
2015,09,28,08,07,9.40
2015,09,28,08,08,9.40
2015,09,28,08,09,9.50
2015,09,28,08,10,9.50
2015,09,28,08,11,9.60
2015,09,28,08,12,9.60
2015,09,28,08,13,9.60
2015,09,28,08,14,9.70
2015,09,28,08,15,9.70
2015,09,28,08,16,9.80
2015,09,28,08,17,9.80
2015,09,28,08,18,9.80
2015,09,28,08,19,9.90
2015,09,28,08,20,9.90
2015,09,28,08,21,10.00
2015,09,28,08,22,10.00
2015,09,28,08,23,10.10
2015,09,28,08,24,10.10
2015,09,28,08,25,10.20
2015,09,28,08,26,10.20
2015,09,28,08,27,10.20
2015,09,28,08,28,10.30
2015,09,28,08,29,10.30
2015,09,28,08,30,10.30
2015,09,28,08,31,10.40
2015,09,28,08,32,10.40
2015,09,28,08,33,10.50
2015,09,28,08,34,10.50
2015,09,28,08,35,10.60
2015,09,28,08,36,10.60
2015,09,28,08,37,10.60
2015,09,28,08,38,10.70
2015,09,28,08,39,10.70
2015,09,28,08,40,10.80
2015,09,28,08,41,10.80
2015,09,28,08,42,10.80
2015,09,28,08,43,10.90
2015,09,28,08,44,10.90
2015,09,28,08,45,11.00
2015,09,28,08,46,11.10
2015,09,28,08,47,11.10
2015,09,28,08,48,11.20
2015,09,28,08,49,11.30
2015,09,28,08,50,11.40
2015,09,28,08,51,11.40
2015,09,28,08,52,11.50
2015,09,28,08,53,11.60
2015,09,28,08,54,11.70
2015,09,28,08,55,11.70
2015,09,28,08,56,11.80
2015,09,28,08,57,11.80
2015,09,28,08,58,11.90
2015,09,28,08,59,12.00
2015,09,28,09,00,12.00
2015,09,28,09,01,12.00
2015,09,28,09,02,12.10
2015,09,28,09,03,12.10
2015,09,28,09,04,12.10
2015,09,28,09,05,12.20
2015,09,28,09,06,12.20
2015,09,28,09,07,12.20
2015,09,28,09,08,12.20
2015,09,28,09,09,12.30
2015,09,28,09,10,12.30
2015,09,28,09,11,12.40
2015,09,28,09,12,12.40
2015,09,28,09,13,12.50
2015,09,28,09,14,12.50
2015,09,28,09,15,12.60
2015,09,28,09,16,12.60
2015,09,28,09,17,12.70
2015,09,28,09,18,12.70
2015,09,28,09,19,12.70
2015,09,28,09,20,12.80
2015,09,28,09,21,12.80
2015,09,28,09,22,12.90
2015,09,28,09,23,12.90
2015,09,28,09,24,13.00
2015,09,28,09,25,13.00
2015,09,28,09,26,13.10
2015,09,28,09,27,13.20
2015,09,28,09,28,13.30
2015,09,28,09,29,13.30
2015,09,28,09,30,13.40
2015,09,28,09,31,13.40
2015,09,28,09,32,13.50
2015,09,28,09,33,13.60
2015,09,28,09,34,13.60
2015,09,28,09,35,13.70
2015,09,28,09,36,13.80
2015,09,28,09,37,13.80
2015,09,28,09,38,13.80
2015,09,28,09,39,13.80
2015,09,28,09,40,13.80
2015,09,28,09,41,13.70
2015,09,28,09,42,13.70
2015,09,28,09,43,13.70
2015,09,28,09,44,13.70
2015,09,28,09,45,13.70
2015,09,28,09,46,13.70
2015,09,28,09,47,13.80
2015,09,28,09,48,13.80
2015,09,28,09,49,13.80
2015,09,28,09,50,13.80
2015,09,28,09,51,13.80
2015,09,28,09,52,13.80
2015,09,28,09,53,13.80
2015,09,28,09,54,13.70
2015,09,28,09,55,13.70
2015,09,28,09,56,13.70
2015,09,28,09,57,13.70
2015,09,28,09,58,13.70
2015,09,28,09,59,13.70
2015,09,28,10,00,13.80
2015,09,28,10,01,13.80
2015,09,28,10,02,13.80
2015,09,28,10,03,13.80
2015,09,28,10,04,13.80
2015,09,28,10,05,13.90
2015,09,28,10,06,13.90
2015,09,28,10,07,13.90
2015,09,28,10,08,13.90
2015,09,28,10,09,13.90
2015,09,28,10,10,13.90
2015,09,28,10,11,13.90
2015,09,28,10,12,14.00
2015,09,28,10,13,14.00
2015,09,28,10,14,14.00
2015,09,28,10,15,13.90
2015,09,28,10,16,13.90
2015,09,28,10,17,13.90
2015,09,28,10,18,14.00
2015,09,28,10,19,14.00
2015,09,28,10,20,14.10
2015,09,28,10,21,14.20
2015,09,28,10,22,14.20
2015,09,28,10,23,14.20
2015,09,28,10,24,14.20
2015,09,28,10,25,14.20
2015,09,28,10,26,14.20
2015,09,28,10,27,14.20
2015,09,28,10,28,14.20
2015,09,28,10,29,14.20
2015,09,28,10,30,14.20
2015,09,28,10,31,14.30
2015,09,28,10,32,14.30
2015,09,28,10,33,14.30
2015,09,28,10,34,14.20
2015,09,28,10,35,14.20
2015,09,28,10,36,14.20
2015,09,28,10,37,14.20
2015,09,28,10,38,14.20
2015,09,28,10,39,14.20
2015,09,28,10,40,14.20
2015,09,28,10,41,14.30
2015,09,28,10,42,14.30
2015,09,28,10,43,14.30
2015,09,28,10,44,14.30
2015,09,28,10,45,14.40
2015,09,28,10,46,14.50
2015,09,28,10,47,14.60
2015,09,28,10,48,14.60
2015,09,28,10,49,14.60
2015,09,28,10,50,14.60
2015,09,28,10,51,14.60
2015,09,28,10,52,14.60
2015,09,28,10,53,14.60
2015,09,28,10,54,14.60
2015,09,28,10,55,14.60
2015,09,28,10,56,14.70
2015,09,28,10,57,14.80
2015,09,28,10,58,14.80
2015,09,28,10,59,14.80
2015,09,28,11,00,14.90
2015,09,28,11,01,14.90
2015,09,28,11,02,15.00
2015,09,28,11,03,15.00
2015,09,28,11,04,15.10
2015,09,28,11,05,15.10
2015,09,28,11,06,15.10
2015,09,28,11,07,15.10
2015,09,28,11,08,15.10
2015,09,28,11,09,15.10
2015,09,28,11,10,15.10
2015,09,28,11,11,15.20
2015,09,28,11,12,15.20
2015,09,28,11,13,15.20
2015,09,28,11,14,15.20
2015,09,28,11,15,15.30
2015,09,28,11,16,15.30
2015,09,28,11,17,15.40
2015,09,28,11,18,15.40
2015,09,28,11,19,15.40
2015,09,28,11,20,15.30
2015,09,28,11,21,15.30
2015,09,28,11,22,15.30
2015,09,28,11,23,15.30
2015,09,28,11,24,15.20
2015,09,28,11,25,15.30
2015,09,28,11,26,15.30
2015,09,28,11,27,15.40
2015,09,28,11,28,15.40
2015,09,28,11,29,15.50
2015,09,28,11,30,15.50
2015,09,28,11,31,15.50
2015,09,28,11,32,15.40
2015,09,28,11,33,15.40
2015,09,28,11,34,15.50
2015,09,28,11,35,15.50
2015,09,28,11,36,15.50
2015,09,28,11,37,15.50
2015,09,28,11,38,15.50
2015,09,28,11,39,15.50
2015,09,28,11,40,15.50
2015,09,28,11,41,15.60
2015,09,28,11,42,15.70
2015,09,28,11,43,15.70
2015,09,28,11,44,15.80
2015,09,28,11,45,15.80
2015,09,28,11,46,15.80
2015,09,28,11,47,15.80
2015,09,28,11,48,15.80
2015,09,28,11,49,15.80
2015,09,28,11,50,15.80
2015,09,28,11,51,15.80
2015,09,28,11,52,15.90
2015,09,28,11,53,15.90
2015,09,28,11,54,16.00
2015,09,28,11,55,16.00
2015,09,28,11,56,16.00
2015,09,28,11,57,15.90
2015,09,28,11,58,16.00
2015,09,28,11,59,16.00
2015,09,28,12,00,16.00
2015,09,28,12,01,16.10
2015,09,28,12,02,16.10
2015,09,28,12,03,16.10
2015,09,28,12,04,16.20
2015,09,28,12,05,16.10
2015,09,28,12,06,16.10
2015,09,28,12,07,16.10
2015,09,28,12,08,16.00
2015,09,28,12,09,16.00
2015,09,28,12,10,16.00
2015,09,28,12,11,16.00
2015,09,28,12,12,15.90
2015,09,28,12,13,15.90
2015,09,28,12,14,15.90
2015,09,28,12,15,16.00
2015,09,28,12,16,16.00
2015,09,28,12,17,16.00
2015,09,28,12,18,16.00
2015,09,28,12,19,16.00
2015,09,28,12,20,16.00
2015,09,28,12,21,16.10
2015,09,28,12,22,16.00
2015,09,28,12,23,16.00
2015,09,28,12,24,16.00
2015,09,28,12,25,16.10
2015,09,28,12,26,16.10
2015,09,28,12,27,16.10
2015,09,28,12,28,16.10
2015,09,28,12,29,16.20
2015,09,28,12,30,16.20
2015,09,28,12,31,16.20
2015,09,28,12,32,16.30
2015,09,28,12,33,16.30
2015,09,28,12,34,16.30
2015,09,28,12,35,16.30
2015,09,28,12,36,16.30
2015,09,28,12,37,16.20
2015,09,28,12,38,16.20
2015,09,28,12,39,16.20
2015,09,28,12,40,16.30
2015,09,28,12,41,16.30
2015,09,28,12,42,16.30
2015,09,28,12,43,16.30
2015,09,28,12,44,16.40
2015,09,28,12,45,16.40
2015,09,28,12,46,16.40
2015,09,28,12,47,16.40
2015,09,28,12,48,16.50
2015,09,28,12,49,16.50
2015,09,28,12,50,16.60
2015,09,28,12,51,16.60
2015,09,28,12,52,16.50
2015,09,28,12,53,16.50
2015,09,28,12,54,16.50
2015,09,28,12,55,16.50
2015,09,28,12,56,16.50
2015,09,28,12,57,16.60
2015,09,28,12,58,16.60
2015,09,28,12,59,16.60
2015,09,28,13,00,16.60
2015,09,28,13,01,16.50
2015,09,28,13,02,16.40
2015,09,28,13,03,16.20
2015,09,28,13,04,16.20
2015,09,28,13,05,16.20
2015,09,28,13,06,16.20
2015,09,28,13,07,16.20
2015,09,28,13,08,16.20
2015,09,28,13,09,16.20
2015,09,28,13,10,16.20
2015,09,28,13,11,16.20
2015,09,28,13,12,16.30
2015,09,28,13,13,16.30
2015,09,28,13,14,16.40
2015,09,28,13,15,16.50
2015,09,28,13,16,16.50
2015,09,28,13,17,16.50
2015,09,28,13,18,16.50
2015,09,28,13,19,16.50
2015,09,28,13,20,16.40
2015,09,28,13,21,16.40
2015,09,28,13,22,16.40
2015,09,28,13,23,16.40
2015,09,28,13,24,16.40
2015,09,28,13,25,16.50
2015,09,28,13,26,16.60
2015,09,28,13,27,16.60
2015,09,28,13,28,16.70
2015,09,28,13,29,16.70
2015,09,28,13,30,16.60
2015,09,28,13,31,16.60
2015,09,28,13,32,16.60
2015,09,28,13,33,16.60
2015,09,28,13,34,16.50
2015,09,28,13,35,16.40
2015,09,28,13,36,16.40
2015,09,28,13,37,16.40
2015,09,28,13,38,16.40
2015,09,28,13,39,16.40
2015,09,28,13,40,16.40
2015,09,28,13,41,16.50
2015,09,28,13,42,16.50
2015,09,28,13,43,16.50
2015,09,28,13,44,16.50
2015,09,28,13,45,16.50
2015,09,28,13,46,16.60
2015,09,28,13,47,16.60
2015,09,28,13,48,16.60
2015,09,28,13,49,16.60
2015,09,28,13,50,16.60
2015,09,28,13,51,16.60
2015,09,28,13,52,16.60
2015,09,28,13,53,16.70
2015,09,28,13,54,16.70
2015,09,28,13,55,16.80
2015,09,28,13,56,16.80
2015,09,28,13,57,16.80
2015,09,28,13,58,16.80
2015,09,28,13,59,16.90
2015,09,28,14,00,17.00
2015,09,28,14,01,17.00
2015,09,28,14,02,17.10
2015,09,28,14,03,17.10
2015,09,28,14,04,17.20
2015,09,28,14,05,17.30
2015,09,28,14,06,17.30
2015,09,28,14,07,17.40
2015,09,28,14,08,17.50
2015,09,28,14,09,17.60
2015,09,28,14,10,17.60
2015,09,28,14,11,17.70
2015,09,28,14,12,17.60
2015,09,28,14,13,17.50
2015,09,28,14,14,17.30
2015,09,28,14,15,17.20
2015,09,28,14,16,17.20
2015,09,28,14,17,17.20
2015,09,28,14,18,17.10
2015,09,28,14,19,17.10
2015,09,28,14,20,17.00
2015,09,28,14,21,16.90
2015,09,28,14,22,16.90
2015,09,28,14,23,16.90
2015,09,28,14,24,17.00
2015,09,28,14,25,17.10
2015,09,28,14,26,17.10
2015,09,28,14,27,17.10
2015,09,28,14,28,17.20
2015,09,28,14,29,17.20
2015,09,28,14,30,17.20
2015,09,28,14,31,17.20
2015,09,28,14,32,17.30
2015,09,28,14,33,17.30
2015,09,28,14,34,17.30
2015,09,28,14,35,17.30
2015,09,28,14,36,17.30
2015,09,28,14,37,17.20
2015,09,28,14,38,17.20
2015,09,28,14,39,17.30
2015,09,28,14,40,17.30
2015,09,28,14,41,17.40
2015,09,28,14,42,17.40
2015,09,28,14,43,17.40
2015,09,28,14,44,17.40
2015,09,28,14,45,17.30
2015,09,28,14,46,17.30
2015,09,28,14,47,17.30
2015,09,28,14,48,17.30
2015,09,28,14,49,17.30
2015,09,28,14,50,17.40
2015,09,28,14,51,17.40
2015,09,28,14,52,17.40
2015,09,28,14,53,17.40
2015,09,28,14,54,17.40
2015,09,28,14,55,17.50
2015,09,28,14,56,17.50
2015,09,28,14,57,17.50
2015,09,28,14,58,17.40
2015,09,28,14,59,17.40
2015,09,28,15,00,17.30
2015,09,28,15,01,17.30
2015,09,28,15,02,17.40
2015,09,28,15,03,17.40
2015,09,28,15,04,17.40
2015,09,28,15,05,17.40
2015,09,28,15,06,17.40
2015,09,28,15,07,17.40
2015,09,28,15,08,17.50
2015,09,28,15,09,17.60
2015,09,28,15,10,17.60
2015,09,28,15,11,17.70
2015,09,28,15,12,17.70
2015,09,28,15,13,17.70
2015,09,28,15,14,17.60
2015,09,28,15,15,17.60
2015,09,28,15,16,17.60
2015,09,28,15,17,17.70
2015,09,28,15,18,17.70
2015,09,28,15,19,17.70
2015,09,28,15,20,17.70
2015,09,28,15,21,17.70
2015,09,28,15,22,17.70
2015,09,28,15,23,17.70
2015,09,28,15,24,17.70
2015,09,28,15,25,17.70
2015,09,28,15,26,17.70
2015,09,28,15,27,17.70
2015,09,28,15,28,17.60
2015,09,28,15,29,17.60
2015,09,28,15,30,17.60
2015,09,28,15,31,17.60
2015,09,28,15,32,17.70
2015,09,28,15,33,17.70
2015,09,28,15,34,17.70
2015,09,28,15,35,17.70
2015,09,28,15,36,17.70
2015,09,28,15,37,17.70
2015,09,28,15,38,17.70
2015,09,28,15,39,17.70
2015,09,28,15,40,17.70
2015,09,28,15,41,17.80
2015,09,28,15,42,17.80
2015,09,28,15,43,17.80
2015,09,28,15,44,17.80
2015,09,28,15,45,17.80
2015,09,28,15,46,17.80
2015,09,28,15,47,17.90
2015,09,28,15,48,17.90
2015,09,28,15,49,17.90
2015,09,28,15,50,17.90
2015,09,28,15,51,17.90
2015,09,28,15,52,17.90
2015,09,28,15,53,17.90
2015,09,28,15,54,17.90
2015,09,28,15,55,17.90
2015,09,28,15,56,17.90
2015,09,28,15,57,17.80
2015,09,28,15,58,17.80
2015,09,28,15,59,17.90
2015,09,28,16,00,17.90
2015,09,28,16,01,18.00
2015,09,28,16,02,17.90
2015,09,28,16,03,17.90
2015,09,28,16,04,17.90
2015,09,28,16,05,17.90
2015,09,28,16,06,17.90
2015,09,28,16,07,17.90
2015,09,28,16,08,17.90
2015,09,28,16,09,17.90
2015,09,28,16,10,17.90
2015,09,28,16,11,17.90
2015,09,28,16,12,17.90
2015,09,28,16,13,17.90
2015,09,28,16,14,17.90
2015,09,28,16,15,17.90
2015,09,28,16,16,17.90
2015,09,28,16,17,17.90
2015,09,28,16,18,17.90
2015,09,28,16,19,17.90
2015,09,28,16,20,17.80
2015,09,28,16,21,17.80
2015,09,28,16,22,17.80
2015,09,28,16,23,17.90
2015,09,28,16,24,17.90
2015,09,28,16,25,17.90
2015,09,28,16,26,18.00
2015,09,28,16,27,18.10
2015,09,28,16,28,18.10
2015,09,28,16,29,18.10
2015,09,28,16,30,18.20
2015,09,28,16,31,18.20
2015,09,28,16,32,18.20
2015,09,28,16,33,18.20
2015,09,28,16,34,18.20
2015,09,28,16,35,18.20
2015,09,28,16,36,18.20
2015,09,28,16,37,18.20
2015,09,28,16,38,18.30
2015,09,28,16,39,18.30
2015,09,28,16,40,18.20
2015,09,28,16,41,18.20
2015,09,28,16,42,18.30
2015,09,28,16,43,18.30
2015,09,28,16,44,18.30
2015,09,28,16,45,18.40
2015,09,28,16,46,18.40
2015,09,28,16,47,18.30
2015,09,28,16,48,18.30
2015,09,28,16,49,18.30
2015,09,28,16,50,18.30
2015,09,28,16,51,18.30
2015,09,28,16,52,18.20
2015,09,28,16,53,18.20
2015,09,28,16,54,18.20
2015,09,28,16,55,18.10
2015,09,28,16,56,18.10
2015,09,28,16,57,18.10
2015,09,28,16,58,18.10
2015,09,28,16,59,18.10
2015,09,28,17,00,18.00
2015,09,28,17,01,18.00
2015,09,28,17,02,18.00
2015,09,28,17,03,18.00
2015,09,28,17,04,17.90
2015,09,28,17,05,17.90
2015,09,28,17,06,18.00
2015,09,28,17,07,18.00
2015,09,28,17,08,18.00
2015,09,28,17,09,18.10
2015,09,28,17,10,18.10
2015,09,28,17,11,18.00
2015,09,28,17,12,17.90
2015,09,28,17,13,17.90
2015,09,28,17,14,18.00
2015,09,28,17,15,18.00
2015,09,28,17,16,18.10
2015,09,28,17,17,18.10
2015,09,28,17,18,18.10
2015,09,28,17,19,18.10
2015,09,28,17,20,18.10
2015,09,28,17,21,18.20
2015,09,28,17,22,18.20
2015,09,28,17,23,18.20
2015,09,28,17,24,18.20
2015,09,28,17,25,18.20
2015,09,28,17,26,18.30
2015,09,28,17,27,18.30
2015,09,28,17,28,18.30
2015,09,28,17,29,18.30
2015,09,28,17,30,18.20
2015,09,28,17,31,18.20
2015,09,28,17,32,18.20
2015,09,28,17,33,18.20
2015,09,28,17,34,18.20
2015,09,28,17,35,18.20
2015,09,28,17,36,18.20
2015,09,28,17,37,18.10
2015,09,28,17,38,18.10
2015,09,28,17,39,18.10
2015,09,28,17,40,18.00
2015,09,28,17,41,18.00